Tracking 29892 objects as of 21-Nov-2024
HD Live streaming from Space Station
objects crossing your sky now

SL-8 DEB

Track SL-8 DEB now!
10-day predictions


NORAD ID: 22843
Int'l Code: 1991-009CN
Perigee: 1,329.9 km
Apogee: 1,703.4 km
Inclination: 74.0 °
Period: 116.2 minutes
Semi major axis: 7887 km
RCS: 0.0195 m2 (small)
Launch date: February 12, 1991
Source: Commonwealth of Independent States (former USSR) (CIS)
Launch site: PLESETSK MISSILE AND SPACE COMPLEX (PKMTR)

Note: This is SATELLITE DEBRIS
Your satellite tracking list
Your tracking list is empty




NASA's NSSDC Master Catalog

Two Line Element Set (TLE):
1 22843U 91009CN  24326.20043219  .00000641  00000-0  45070-2 0  9995
2 22843  74.0249  46.1954 0236751 211.7089 176.9732 12.39312531422348
Source of the keplerian elements: AFSPC